Regional Weather Roundup
Issued by NWS Cleveland, OH

Home | Current Version | Previous Version | Text Only | Print | Product List | Glossary Off
Versions: 1 2 3 4 5 6 7 8 9 10 11 12 13 14 15 16 17 18 19 20 21 22 23 24 25 26 27 28 29 30 31 32 33 34 35 36 37 38 39 40 41 42 43 44 45 46 47 48 49 50

000
ASUS41 KCLE 010810
RWRCLE
OHIO REGIONAL WEATHER ROUNDUP
NATIONAL WEATHER SERVICE CLEVELAND, OH
300 AM EST SUN FEB 01 2015

NOTE: "FAIR" INDICATES FEW OR NO CLOUDS BELOW 12,000 FEET WITH NO
SIGNIFICANT WEATHER AND/OR OBSTRUCTIONS TO VISIBILITY.

OHZ001>008-015>018-024>027-034-035-043-044-010900-
   NORTHWEST OHIO

CITY           SKY/WX    TMP DP  RH WIND       PRES   REMARKS
DEFIANCE       LGT SNOW  33  31  92 CALM      30.16F VSB 3/4
FINDLAY        LGT SNOW  32  30  92 SW6       30.16S FOG     WCI  26
TOLEDO EXPRESS LGT SNOW  30  30 100 CALM      30.17S VSB 3/4
TOLEDO EXEC    LGT SNOW  31  30  96 CALM      30.18S VSB 1
LIMA           LGT SNOW  34  31  88 SW5       30.16S VSB 3/4 WCI  30
$$

OHZ009>014-019>023-028>033-038-089-010900-
   NORTHEAST OHIO

CITY           SKY/WX    TMP DP  RH WIND       PRES   REMARKS
CLE-HOPKINS    LGT SNOW  29  25  85 SW7       30.20R FOG     WCI  22
CLE-LAKEFRONT  CLOUDY    32  24  72 SW12      30.17S WCI  23
CUY CO. ARPT   NOT AVBL
LORAIN-ELYRIA  LGT SNOW  30  28  92 W7        30.18R FOG     WCI  23
ASHTABULA      CLOUDY    27  19  72 CALM      30.17R
AKRON-CANTON   LGT SNOW  29  22  75 SW5       30.16R FOG     WCI  24
WOOSTER        LGT SNOW  27  23  85 SW6       30.17S FOG     WCI  20
MANSFIELD      LGT SNOW  30  29  96 SW5       30.15S FOG     WCI  25
YOUNGSTOWN     CLOUDY    28  19  69 S5        30.15S WCI  23
$$

OHZ042-051>053-060>062-070>072-077>081-010900-
  SOUTHWEST OHIO

CITY           SKY/WX    TMP DP  RH WIND       PRES   REMARKS
CINC-COVINGTON CLOUDY    34  29  82 E5        30.15F WCI  30
CINC-LUNKEN    CLOUDY    32  31  96 CALM      30.20F
HAMILTON       CLOUDY    33  31  92 CALM      30.19F FOG
DAYTON         LGT RAIN  33  31  92 S5        30.17S FOG     WCI  29
WRIGHT-PAT AFB DRIZZLE   32  32 100 CALM      30.18S FOG
DAYTON GENERAL CLOUDY    32  31  96 SE5       30.16F FOG     WCI  27
WILMINGTON     CLOUDY    31  28  89 SW9       30.18R WCI  23
$$

OHZ036-037-039>041-045>050-054>059-063>069-073>076-082>088-010900-
  CENTRAL AND SOUTHEAST OHIO

CITY           SKY/WX    TMP DP  RH WIND       PRES   REMARKS
COLUMBUS       LGT SNOW  31  29  92 CALM      30.19S FOG
OSU AIRPORT    LGT SNOW  32  30  92 CALM      30.17F FOG
BOLTON FIELD   MIX PCPN  32  31  97 MISG      30.17F
RICKENBACK AFB MIX PCPN  32  31  96 CALM      30.19S
NEWARK         LGT SNOW  31  29  92 S3        30.18F FOG
MARION         LGT SNOW  30  29  96 S3        30.17F VSB 1
LANCASTER      CLOUDY    33  29  85 SW3       30.19F
ZANESVILLE     LGT SNOW  29  26  89 S5        30.20S FOG     WCI  24
NEW PHILLY     LGT SNOW  29  24  82 CALM      30.20R
$$



USA.gov is the U.S. government's official web portal to all federal, state and local government web resources and services.